Oscoda, MI

2:35 AM EST on February 21, 2018 (GMT -0500)
Oscoda-Wurtsmith

Weather History for KOSC - April, 2013

Change the Weather History Date:

Thursday, April 4, 2013

  Actual Average Record
Temperature  
Mean Temperature 40 °F -  
Max Temperature 57 °F 44 °F 60 °F (2005)
Min Temperature 22 °F 27 °F 9 °F (2016)
Degree Days  
Heating Degree Days 26    
Moisture  
Dew Point 23 °F    
Average Humidity 58    
Maximum Humidity 89    
Minimum Humidity 26    
Precipitation  
Precipitation 0.00 in - - ()
Sea Level Pressure  
Sea Level Pressure 30.04 in    
Wind  
Wind Speed 10 mph (SW)    
Max Wind Speed 24 mph    
Max Gust Speed 33 mph    
Visibility 10 miles    
Events Rain    
Averages and records for this station are not official NWS values.
T = Trace of Precipitation, MM = Missing Value Source: NWS Daily Summary

Daily Weather History Graph

Daily Weather History Graph

Search for Another Location

Airport or City:

Trip Planner

Search our weather history database for the weather conditions in past years. The results will help you decide how hot, cold, wet, or windy it might be!

Date:

Astronomy

Apr. 04, 2013 Rise Set
Actual Time 7:08 AM EDT 8:04 PM EDT
Civil Twilight 6:39 AM EDT 8:34 PM EDT
Nautical Twilight 6:03 AM EDT 9:09 PM EDT
Astronomical Twilight 5:27 AM EDT 9:46 PM EDT
Moon 3:47 AM EDT (4/4) 2:09 PM EDT (4/4)
Length of Visible Light 13h 55m
Length of Day
12h 56m
Waning Crescent, 34% of the Moon is Illuminated
Apr 4
Waning Crescent
Apr 10
New
Apr 18
First Quarter
Apr 25
Full
May 2
Last Quarter

Hourly Weather History & Observations

Time (EDT) Temp. Windchill Dew Point Humidity Pressure Visibility Wind Dir Wind Speed Gust Speed Precip Events Conditions
12:14 AM 23.0 °F - 20.3 °F 89% 30.28 in 10.0 mi Calm Calm - N/A   Clear
12:34 AM 23.0 °F 18.4 °F 20.1 °F 89% 30.27 in 10.0 mi SW 3.5 mph - N/A   Clear
12:54 AM 22.6 °F 18.0 °F 19.9 °F 89% 30.26 in 10.0 mi SW 3.5 mph - N/A   Clear
1:14 AM 23.7 °F 17.8 °F 19.4 °F 84% 30.26 in 10.0 mi SW 4.6 mph - N/A   Clear
1:34 AM 23.9 °F 16.8 °F 18.7 °F 80% 30.26 in 10.0 mi SW 5.8 mph - N/A   Clear
1:54 AM 27.0 °F 18.7 °F 21.2 °F 79% 30.26 in 10.0 mi SW 8.1 mph - N/A   Clear
2:14 AM 27.1 °F 19.7 °F 21.2 °F 78% 30.25 in 10.0 mi SW 6.9 mph - N/A   Clear
2:35 AM 27.5 °F 19.3 °F 21.7 °F 79% 30.24 in 10.0 mi SW 8.1 mph - N/A   Clear
2:54 AM 27.1 °F 18.9 °F 21.2 °F 78% 30.24 in 10.0 mi SSW 8.1 mph - N/A   Clear
3:14 AM 28.4 °F 19.7 °F 20.7 °F 73% 30.23 in 10.0 mi SSW 9.2 mph - N/A   Clear
3:35 AM 27.5 °F 20.2 °F 20.1 °F 74% 30.22 in 10.0 mi SSW 6.9 mph - N/A   Clear
3:54 AM 27.5 °F 19.3 °F 19.8 °F 73% 30.22 in 10.0 mi SSW 8.1 mph - N/A   Clear
4:14 AM 26.2 °F 19.6 °F 18.9 °F 74% 30.21 in 10.0 mi SW 5.8 mph - N/A   Clear
4:35 AM 26.6 °F 20.0 °F 18.5 °F 71% 30.20 in 10.0 mi SSW 5.8 mph - N/A   Clear
4:54 AM 27.3 °F 20.9 °F 18.3 °F 69% 30.20 in 10.0 mi South 5.8 mph - N/A   Clear
5:14 AM 27.1 °F 20.7 °F 18.3 °F 69% 30.19 in 10.0 mi South 5.8 mph - N/A   Clear
5:35 AM 28.2 °F 19.5 °F 18.5 °F 67% 30.19 in 10.0 mi SSW 9.2 mph - N/A   Clear
5:54 AM 27.3 °F 19.1 °F 19.0 °F 71% 30.18 in 10.0 mi SSW 8.1 mph - N/A   Clear
6:14 AM 29.1 °F 17.5 °F 19.4 °F 67% 30.17 in 10.0 mi SSW 16.1 mph - N/A   Clear
6:35 AM 28.6 °F 18.2 °F 20.1 °F 71% 30.17 in 10.0 mi SSW 12.7 mph - N/A   Clear
6:54 AM 28.4 °F 18.0 °F 20.1 °F 71% 30.17 in 10.0 mi SSW 12.7 mph - N/A   Clear
7:14 AM 28.8 °F 18.4 °F 20.7 °F 72% 30.16 in 10.0 mi SSW 12.7 mph - N/A   Clear
7:35 AM 28.9 °F 18.6 °F 20.8 °F 72% 30.16 in 10.0 mi SSW 12.7 mph - N/A   Clear
7:54 AM 29.7 °F 20.1 °F 21.0 °F 70% 30.15 in 10.0 mi SW 11.5 mph 18.4 mph N/A   Clear
8:14 AM 30.7 °F 20.9 °F 20.7 °F 66% 30.14 in 10.0 mi SW 12.7 mph 19.6 mph N/A   Clear
8:34 AM 32.0 °F 21.2 °F 20.3 °F 62% 30.14 in 10.0 mi SW 16.1 mph - N/A   Clear
8:54 AM 33.8 °F 23.2 °F 19.6 °F 56% 30.13 in 10.0 mi SSW 17.3 mph 20.7 mph N/A   Clear
9:14 AM 35.6 °F 25.5 °F 18.5 °F 50% 30.12 in 10.0 mi SW 17.3 mph 20.7 mph N/A   Clear
9:34 AM 36.9 °F 27.1 °F 17.2 °F 45% 30.10 in 10.0 mi SW 17.3 mph 25.3 mph N/A   Clear
9:54 AM 38.5 °F 28.3 °F 16.7 °F 41% 30.08 in 10.0 mi SW 20.7 mph 27.6 mph N/A   Clear
10:14 AM 39.7 °F 30.3 °F 16.9 °F 40% 30.07 in 10.0 mi SW 19.6 mph 25.3 mph N/A   Clear
10:34 AM 41.5 °F 32.6 °F 17.2 °F 38% 30.06 in 10.0 mi SW 19.6 mph 25.3 mph N/A   Clear
10:54 AM 43.0 °F 35.4 °F 17.6 °F 36% 30.04 in 10.0 mi SW 16.1 mph 26.5 mph N/A   Clear
11:15 AM 45.1 °F 36.9 °F 17.8 °F 34% 30.03 in 10.0 mi WSW 21.9 mph 33.4 mph N/A   Clear
11:34 AM 46.6 °F - 18.7 °F 33% 30.02 in 10.0 mi SW 20.7 mph 28.8 mph N/A   Clear
11:54 AM 48.7 °F - 18.7 °F 30% 30.01 in 10.0 mi WSW 24.2 mph 32.2 mph N/A   Clear
12:15 PM 50.0 °F - 18.3 °F 29% 29.99 in 10.0 mi WSW 21.9 mph 31.1 mph N/A   Clear
12:34 PM 50.9 °F - 18.7 °F 28% 29.98 in 10.0 mi WSW 24.2 mph 31.1 mph N/A   Clear
12:54 PM 52.3 °F - 19.4 °F 27% 29.97 in 10.0 mi WSW 23.0 mph 29.9 mph N/A   Clear
1:14 PM 53.6 °F - 20.1 °F 27% 29.96 in 10.0 mi SW 13.8 mph 25.3 mph N/A   Clear
1:34 PM 54.1 °F - 20.5 °F 27% 29.95 in 10.0 mi WSW 18.4 mph 26.5 mph N/A   Clear
1:54 PM 54.7 °F - 21.0 °F 27% 29.94 in 10.0 mi WSW 21.9 mph 31.1 mph N/A   Clear
2:14 PM 55.4 °F - 21.4 °F 27% 29.93 in 10.0 mi WSW 21.9 mph 28.8 mph N/A   Clear
2:34 PM 55.4 °F - 21.4 °F 27% 29.92 in 10.0 mi SW 23.0 mph 29.9 mph N/A   Clear
2:54 PM 55.8 °F - 21.7 °F 27% 29.91 in 10.0 mi SW 18.4 mph 27.6 mph N/A   Clear
3:15 PM 56.7 °F - 22.3 °F 26% 29.89 in 10.0 mi SW 21.9 mph 28.8 mph N/A   Clear
3:34 PM 56.7 °F - 22.5 °F 27% 29.88 in 10.0 mi SSW 18.4 mph 28.8 mph N/A   Clear
3:54 PM 57.4 °F - 22.8 °F 26% 29.88 in 10.0 mi SW 21.9 mph 31.1 mph N/A   Clear
4:14 PM 56.8 °F - 23.4 °F 27% 29.86 in 10.0 mi North - - N/A   Clear
4:34 PM 57.4 °F - 23.7 °F 27% 29.85 in 10.0 mi SW 16.1 mph 32.2 mph N/A   Clear
4:54 PM 57.9 °F - 24.4 °F 28% 29.85 in 10.0 mi SW 16.1 mph 26.5 mph N/A   Clear
5:14 PM 57.4 °F - 24.6 °F 28% 29.85 in 10.0 mi SW 16.1 mph 27.6 mph N/A   Clear
5:34 PM 57.2 °F - 24.6 °F 29% 29.85 in 10.0 mi SW 20.7 mph 24.2 mph N/A   Clear
5:54 PM 55.6 °F - 24.4 °F 30% 29.85 in 10.0 mi SW 15.0 mph 23.0 mph N/A   Scattered Clouds
6:14 PM 55.0 °F - 24.6 °F 31% 29.85 in 10.0 mi WSW 10.4 mph 16.1 mph N/A   Overcast
6:34 PM 41.5 °F 32.1 °F 30.9 °F 66% 29.88 in 10.0 mi NNE 21.9 mph 27.6 mph N/A   Overcast
6:54 PM 38.5 °F 30.3 °F 31.6 °F 76% 29.90 in 10.0 mi NNE 13.8 mph 21.9 mph N/A   Overcast
7:14 PM 38.3 °F 32.5 °F 32.0 °F 78% 29.91 in 10.0 mi NNE 8.1 mph - N/A   Overcast
7:34 PM 38.5 °F 32.1 °F 32.0 °F 78% 29.92 in 10.0 mi NNE 9.2 mph - N/A   Overcast
7:55 PM 38.5 °F 34.1 °F 32.0 °F 78% 29.92 in 10.0 mi North 5.8 mph - N/A   Overcast
8:14 PM 38.7 °F 33.6 °F 32.0 °F 77% 29.92 in 10.0 mi NNE 6.9 mph - N/A Rain Rain
8:34 PM 38.5 °F - 32.5 °F 79% 29.93 in 10.0 mi Calm Calm - N/A   Overcast
8:54 PM 38.8 °F - 32.4 °F 78% 29.93 in 10.0 mi Calm Calm - N/A   Overcast
9:14 PM 38.8 °F - 32.2 °F 77% 29.93 in 10.0 mi Calm Calm - N/A   Overcast
9:34 PM 39.6 °F 37.4 °F 32.5 °F 76% 29.94 in 10.0 mi SW 3.5 mph - N/A   Overcast
9:54 PM 41.0 °F 34.7 °F 32.4 °F 71% 29.95 in 10.0 mi WNW 10.4 mph 17.3 mph N/A   Overcast
10:14 PM 39.9 °F 35.8 °F 32.0 °F 73% 29.95 in 10.0 mi WNW 5.8 mph - N/A   Mostly Cloudy
10:34 PM 39.2 °F 33.6 °F 32.0 °F 75% 29.95 in 10.0 mi WNW 8.1 mph - N/A   Clear
10:54 PM 37.4 °F 33.8 °F 32.0 °F 81% 29.96 in 10.0 mi WNW 4.6 mph - N/A   Scattered Clouds
11:14 PM 37.4 °F 33.8 °F 32.0 °F 81% 29.96 in 10.0 mi WNW 4.6 mph - N/A   Mostly Cloudy
11:34 PM 35.4 °F 31.5 °F 31.1 °F 84% 29.96 in 10.0 mi NW 4.6 mph - N/A   Scattered Clouds
11:54 PM 34.9 °F 32.0 °F 31.1 °F 86% 29.96 in 10.0 mi NW 3.5 mph - N/A   Mostly Cloudy